SCP
0 0 0 0 0 0 0 0 0 0 0 1 1 1 1 1 2 2 2 2 1 1 1 1 1 1 1 1 1 1 1 2 2 2 1 1 1 1 1 1 1 1 1 1
0 0 0 0 0 0 0 0 0 0 0 1 1 1 1 1 1 1 1 1 1 1 1 1 1 1 1 1 1 1 1 2 2 2 2 2 1 1 1 1 1 1 1 1
0 0 0 0 0 0 0 0 0 0 0 0 1 1 1 1 1 1 1 1 1 1 1 0 0 1 1 1 2 2 2 2 2 3 3 3 2 1 1 1 1 1 1 1
0 0 0 0 0 0 0 0 0 0 0 0 0 1 1 1 1 1 1 1 1 1 1 1 1 1 1 1 2 2 2 2 2 2 3 3 2 1 1 1 1 1 1 1
0 0 0 0 0 0 0 0 0 0 0 0 0 0 1 1 1 1 1 2 2 3 2 1 1 1 1 1 2 2 3 3 2 2 2 2 2 1 1 1 1 1 1 1
0 0 0 0 0 0 0 0 0 0 0 0 0 0 0 0 1 1 2 3 4 5 4 2 1 1 1 1 1 2 3 3 2 2 1 2 2 2 2 2 1 1 1 1
0 0 0 1 1 1 0 0 0 0 0 0 0 0 0 0 0 1 2 5 6 5 4 3 2 2 2 1 2 2 3 3 3 2 2 2 2 3 3 2 1 1 1 1
0 0 1 1 1 1 0 0 0 0 0 0 0 0 0 0 1 1 4 6 7 6 4 3 3 2 2 2 2 3 3 4 3 2 2 2 2 3 3 3 2 2 1 1
0 0 1 1 1 0 0 0 0 0 0 0 0 0 1 1 1 2 4 6 6 5 4 3 3 3 3 4 4 4 4 4 3 2 2 2 2 2 2 2 2 2 1 1
0 1 1 2 1 1 0 0 0 0 0 1 1 0 1 1 2 3 4 5 5 4 3 3 3 4 5 5 5 3 3 3 3 2 2 2 2 2 2 1 1 1 1 1
0 1 1 2 1 0 0 0 0 0 0 0 0 0 0 1 2 3 4 4 3 3 2 3 4 5 5 4 4 3 2 2 2 2 2 2 2 2 2 1 1 1 1 1
0 0 1 1 1 0 0 0 0 0 0 0 0 0 1 1 2 3 4 3 2 2 2 3 3 3 3 3 3 2 2 2 2 2 2 2 2 2 1 2 2 2 2 2
0 0 0 0 0 0 0 0 0 0 0 0 0 0 1 2 3 4 4 4 3 2 2 3 2 2 2 2 2 2 2 2 2 3 3 3 2 2 2 2 2 2 3 3
0 0 0 0 0 0 0 0 0 0 0 0 0 0 1 3 4 4 4 4 4 4 3 3 3 2 2 2 2 2 3 3 3 3 3 3 3 2 2 2 2 2 3 3
0 0 0 0 0 1 1 1 0 0 0 0 0 1 2 3 4 4 4 4 4 4 4 4 4 3 3 2 3 3 3 3 3 3 3 3 3 3 3 3 3 3 4 4
0 0 0 0 0 1 1 1 1 1 1 1 1 1 2 3 3 3 3 4 4 3 4 4 5 4 3 3 4 4 4 4 4 3 3 3 3 4 4 3 3 3 4 6
0 0 0 0 0 1 1 1 1 1 1 1 1 2 3 3 3 3 3 4 4 4 4 4 4 4 4 5 5 5 5 5 4 3 3 3 3 3 3 3 3 3 4 5
0 0 0 0 0 1 1 1 1 2 2 2 3 4 4 4 3 3 3 4 4 4 4 4 4 4 5 5 6 6 6 6 5 4 3 3 3 3 2 3 3 4 5 5
0 0 0 0 0 1 1 1 2 2 2 3 4 4 4 4 3 3 3 3 3 3 3 4 5 5 5 5 6 7 7 6 5 4 4 4 3 3 3 3 5 6 8 8
0 0 0 0 0 1 1 2 2 2 3 3 4 4 3 3 3 3 3 3 2 2 4 6 6 6 6 5 6 7 7 6 4 4 4 5 5 4 4 4 6 9 11 12
0 0 0 0 1 1 2 2 2 2 2 3 3 3 3 3 3 3 3 3 3 3 4 6 7 7 7 6 5 6 6 5 4 4 4 5 6 6 5 5 7 10 12 13
0 0 0 1 1 2 3 3 2 1 2 3 3 3 3 3 3 4 4 4 3 3 4 7 8 8 8 6 5 5 5 5 4 4 4 5 6 6 6 6 7 9 10 11
1 1 2 2 2 3 3 2 2 2 2 3 3 4 4 4 4 4 4 4 4 4 5 7 8 9 9 7 6 6 6 6 5 5 4 4 5 5 5 5 6 7 7 7
1 1 3 3 3 3 2 2 2 2 2 2 3 4 4 4 4 3 3 3 3 4 5 7 9 10 10 9 8 7 7 6 6 5 4 4 4 4 4 4 5 5 5 5
1 1 2 3 2 2 2 1 1 1 2 2 2 2 3 3 3 3 2 3 3 4 5 6 8 11 12 11 9 7 6 5 5 4 4 4 4 4 4 4 4 5 5 5
1 1 1 1 1 1 1 1 1 1 1 1 1 1 2 2 2 2 2 3 4 5 5 6 8 11 13 11 9 6 5 4 4 4 4 5 5 5 5 5 4 4 4 4
Wind_Speed
3 5 3 6 7 6 5 4 3 3 3 4 3 3 5 8 8 8 8 9 9 9 6 6 6 6 6 6 6 6 6 5 4 3 2 2 2 1 1 2 2 2 3 3
4 1 6 4 4 4 4 3 2 2 1 3 1 2 2 7 10 9 10 10 10 8 6 6 7 7 8 8 7 7 6 6 6 4 3 2 2 1 1 1 1 2 2 3
6 5 3 4 3 3 2 5 5 3 2 3 3 3 2 2 4 5 7 7 8 10 10 9 9 9 8 9 9 8 7 6 6 5 3 2 2 1 1 0 1 1 2 2
4 4 3 3 3 5 3 5 6 5 4 0 2 2 6 3 3 6 8 8 9 9 9 9 9 9 10 10 8 7 7 7 6 6 5 5 4 3 3 2 1 1 1 2
5 3 4 4 5 7 5 2 4 4 4 2 1 2 8 1 5 9 10 10 9 8 9 10 11 11 9 9 8 8 7 6 6 6 6 5 4 3 2 1 1 1 1 2
5 3 4 5 3 5 5 8 7 6 5 1 3 3 7 5 8 6 7 9 8 7 8 9 8 8 7 7 7 7 7 6 6 6 6 6 5 5 3 3 2 2 1 1
2 2 2 3 3 2 5 7 4 4 3 5 2 3 10 7 6 7 7 7 8 7 7 8 9 9 8 9 9 9 9 7 6 6 6 6 6 5 5 4 4 3 2 2
4 5 4 4 7 7 5 9 9 6 5 4 1 5 9 5 3 3 3 4 5 6 7 8 9 9 9 10 9 9 9 7 7 7 6 5 5 4 3 4 3 3 3 3
7 7 5 3 3 9 7 4 7 8 3 1 4 6 8 2 1 1 2 3 4 6 7 7 7 8 8 9 9 10 9 8 7 7 6 5 5 4 4 3 3 2 2 2
9 4 4 2 4 3 6 9 6 7 7 3 4 4 6 5 4 3 3 3 4 5 5 6 7 8 7 7 7 7 7 7 6 6 5 5 4 5 4 3 4 3 3 3
5 5 2 2 3 5 4 4 6 5 6 8 4 8 7 8 7 6 5 4 5 5 6 5 5 5 4 5 5 5 5 4 4 5 4 4 4 4 4 3 4 4 3 3
4 6 2 4 3 2 4 7 8 7 5 5 5 8 4 4 4 4 3 2 3 4 4 4 4 4 4 5 5 5 5 5 5 5 5 4 3 3 3 4 4 3 3 4
6 7 3 5 5 3 2 2 3 6 6 5 5 7 3 1 2 2 3 3 2 3 3 3 4 4 4 4 4 4 5 5 5 5 5 4 4 4 4 4 3 3 4 4
6 5 7 9 8 4 2 2 4 6 5 5 7 6 3 2 2 2 2 3 3 3 4 4 4 3 4 3 3 3 3 3 4 5 5 5 5 5 5 4 3 3 4 5
5 4 2 2 2 3 2 2 4 4 7 8 8 7 6 5 4 4 3 4 5 4 3 4 3 3 3 3 2 2 2 3 3 4 4 5 4 4 3 3 4 4 4 5
4 4 2 1 1 2 1 1 3 3 3 3 3 4 3 1 2 3 3 5 4 3 3 3 3 3 3 3 3 2 2 2 3 3 4 3 3 3 3 3 3 3 3 4
2 4 3 1 2 3 2 3 1 1 0 3 5 5 3 2 3 3 3 3 3 3 3 3 3 3 2 3 3 3 3 2 3 3 3 3 3 3 3 4 3 3 3 3
5 4 4 2 3 2 4 1 2 3 2 1 2 2 3 2 2 2 2 3 3 2 2 2 2 2 2 2 2 2 2 2 2 2 2 2 3 3 3 3 4 4 3 3
4 7 5 4 3 1 2 1 1 1 2 2 1 2 2 3 4 2 1 2 2 3 2 2 2 2 2 2 2 2 2 1 1 1 2 2 3 4 4 4 5 4 3 3
5 5 6 4 4 5 4 4 3 3 1 2 1 2 2 3 2 2 1 1 1 1 1 1 2 2 1 1 2 3 2 1 2 3 3 3 3 3 4 4 4 3 3 3
4 5 4 4 3 4 4 6 2 3 4 1 1 2 2 2 3 2 1 1 1 1 1 1 2 1 1 1 2 2 2 3 4 3 2 2 3 4 4 3 2 3 3 3
2 3 2 3 3 4 4 3 2 2 1 1 1 1 2 2 1 1 2 1 1 1 1 2 2 1 1 1 1 2 3 3 2 2 2 2 3 3 2 2 2 2 3 3
1 3 4 4 4 3 2 0 0 2 2 1 1 1 2 2 1 1 1 1 1 1 1 1 1 1 1 0 2 3 3 2 1 2 2 2 2 2 2 2 2 2 2 3
1 1 3 2 1 2 2 2 2 2 2 1 1 1 2 2 1 1 1 1 1 1 1 1 2 2 2 2 1 2 2 2 2 2 2 2 2 2 2 2 2 3 3 3
2 1 3 1 1 2 3 2 2 2 2 2 2 1 2 2 0 0 0 0 1 1 1 1 0 1 3 2 2 2 2 1 1 2 2 2 2 2 2 2 2 3 3 4
3 4 4 5 5 3 3 2 1 2 2 2 2 2 1 1 1 0 1 1 1 1 1 1 1 2 3 2 2 3 2 1 1 1 2 2 2 1 1 2 1 0 1 2
Wind_Direction
60 85 165 203 190 179 166 171 221 234 204 157 195 228 199 184 189 193 194 196 202 213 209 189 183 176 169 170 174 179 176 171 156 149 156 164 194 201 207 217 212 197 194 187
50 224 216 184 154 144 157 165 229 299 116 141 152 274 219 190 201 200 200 202 203 202 190 190 183 176 179 181 184 185 187 179 176 173 162 161 152 170 190 214 213 211 197 185
183 221 177 149 146 152 184 180 191 186 61 64 90 334 272 228 208 209 210 204 202 202 195 193 188 189 185 189 188 191 194 190 186 169 136 114 92 70 79 154 218 220 199 193
215 228 164 160 184 159 228 210 172 153 121 255 133 247 275 231 227 219 215 207 208 209 195 190 190 192 194 196 187 185 188 190 185 169 165 166 171 184 200 189 200 219 197 194
227 197 170 197 209 169 199 133 127 130 125 90 35 159 279 214 238 235 223 216 214 208 195 191 193 194 194 189 183 182 182 186 182 175 175 172 179 183 169 165 195 224 225 209
229 227 191 199 188 157 125 74 59 53 74 116 230 171 269 232 224 233 222 214 209 201 192 190 190 181 182 181 180 174 175 186 181 177 175 179 184 180 175 191 212 223 223 229
296 290 240 157 110 73 98 95 52 16 20 247 233 189 248 249 233 223 217 208 200 190 187 185 183 183 183 182 183 178 178 185 181 179 184 189 190 185 192 201 208 211 216 222
177 268 236 187 172 173 173 143 155 180 205 258 282 229 255 264 259 243 215 191 181 181 185 188 188 188 186 183 178 174 176 180 179 184 191 190 189 189 198 201 198 204 214 224
170 236 273 227 181 144 140 165 155 129 142 167 264 277 299 292 283 173 164 162 176 182 182 182 181 186 183 179 177 179 175 174 179 184 183 183 184 186 194 199 198 206 215 225
155 202 269 287 83 48 140 143 109 122 145 205 265 258 246 250 232 202 187 192 191 177 175 182 185 183 175 174 169 168 173 176 175 174 182 184 183 187 188 186 200 207 212 213
142 157 287 43 152 175 119 108 111 115 149 155 213 259 229 218 209 195 204 201 185 173 176 181 183 174 157 143 145 156 164 160 165 169 171 174 180 180 178 194 209 211 209 209
144 127 204 257 255 193 162 164 148 151 192 170 170 257 284 221 201 177 185 179 162 158 163 158 149 136 132 140 146 157 159 172 178 173 167 174 173 172 184 201 211 207 213 217
135 115 93 348 346 6 91 127 133 120 118 150 168 253 328 74 116 139 148 144 132 131 130 125 129 134 138 146 150 159 166 177 178 170 167 171 176 180 197 211 215 206 211 217
113 112 157 189 210 198 181 154 148 127 143 182 210 228 287 278 163 153 150 144 128 124 131 131 135 142 139 144 147 157 160 167 171 169 174 186 193 196 202 205 208 214 214 215
96 118 158 192 199 164 167 192 181 182 179 179 210 205 232 228 200 174 155 137 121 119 120 123 128 124 119 121 133 149 157 158 163 166 181 197 199 197 200 209 212 214 215 219
63 112 101 52 33 144 91 331 199 198 172 182 161 229 241 155 115 125 147 150 142 143 145 131 120 116 133 148 150 145 153 163 161 169 186 193 191 189 192 213 225 222 222 224
64 107 100 194 316 61 355 303 226 156 146 171 199 220 157 129 149 172 164 148 160 164 151 142 149 157 165 170 160 164 173 159 161 180 190 190 192 200 204 211 211 221 230 229
127 100 111 116 86 179 238 322 88 96 32 20 161 161 168 178 167 152 151 155 170 169 156 166 173 180 175 158 154 152 138 147 169 189 204 207 204 213 216 213 221 226 230 232
140 129 112 113 130 244 284 5 50 119 356 344 145 133 119 102 68 12 25 157 181 178 181 192 185 187 175 165 152 129 122 129 175 219 232 235 225 223 218 219 228 233 224 228
51 85 108 117 137 208 241 299 299 117 309 306 146 149 144 107 112 255 338 59 71 67 124 147 144 138 144 177 158 143 157 188 234 239 242 244 241 239 234 231 234 234 227 230
33 44 94 130 160 249 281 302 345 153 228 294 124 146 136 150 194 211 96 78 104 84 59 96 111 132 173 166 148 166 197 228 243 249 255 253 246 244 239 234 232 232 227 225
137 124 145 133 153 238 319 8 108 208 283 67 96 115 109 106 85 97 109 110 97 76 65 95 99 28 345 109 151 210 237 247 246 238 254 266 262 256 249 229 237 228 217 216
124 181 170 169 195 251 299 104 166 140 117 105 123 118 116 105 99 103 96 61 21 28 25 56 97 62 345 289 187 229 257 258 233 232 245 255 261 263 249 226 229 235 222 221
8 88 99 75 319 321 349 38 42 53 105 149 146 137 117 112 113 30 7 8 12 358 346 9 50 26 321 313 295 260 262 242 225 232 236 232 229 239 236 229 218 219 226 229
226 104 95 77 291 359 359 26 36 35 66 72 66 82 114 108 99 191 144 322 308 353 351 9 53 276 284 296 312 305 285 213 221 235 234 235 230 219 228 234 227 224 229 225
214 176 166 207 215 187 235 272 24 54 49 43 48 23 29 113 178 228 273 277 290 313 343 344 332 311 295 299 311 309 301 239 196 226 243 242 238 221 212 221 253 333 233 254